Weather History for Defiance, OH

Change the Weather History Date:

Thursday, February 21, 2013

  Actual Average Record
Temperature  
Mean Temperature 24 °F -  
Max Temperature 27 °F 39 °F 63 °F (1983)
Min Temperature 21 °F 19 °F -10 °F (1978)
Degree Days  
Heating Degree Days 41    
Moisture  
Dew Point 14 °F    
Average Humidity 67    
Maximum Humidity 72    
Minimum Humidity 63    
Precipitation  
Precipitation 0.00 in - - ()
Sea Level Pressure  
Sea Level Pressure 30.33 in    
Wind  
Wind Speed 9 mph (NE)    
Max Wind Speed 15 mph    
Max Gust Speed 24 mph    
Visibility 10 miles    
Events      
Averages and records for this station are not official NWS values.
T = Trace of Precipitation, MM = Missing Value Source: NWS Daily Summary

Daily Weather History Graph

Daily Weather History Graph

Search for Another Location

Airport:

Trip Planner

Search our weather history database for the weather conditions in past years. The results will help you decide how hot, cold, wet, or windy it might be!

Date:

Astronomy

Feb. 21, 2013 Rise Set
Actual Time 7:23 AM EST 6:19 PM EST
Civil Twilight 6:55 AM EST 6:47 PM EST
Nautical Twilight 6:23 AM EST 7:19 PM EST
Astronomical Twilight 5:51 AM EST 7:51 PM EST
Moon 2:31 PM EST 4:29 AM EST
Length of Visible Light 11h 51m
Length of Day
10h 55m
Waxing Gibbous, 83% of the Moon is Illuminated
Feb 21
Waxing Gibbous
Feb 25
Full
Mar 4
Last Quarter
Mar 11
New
Mar 19
First Quarter

Hourly Weather History & Observations

Time (EST) Temp. Windchill Dew Point Humidity Pressure Visibility Wind Dir Wind Speed Gust Speed Precip Events Conditions
12:53 AM 23.0 °F 13.1 °F 12.9 °F 65% 30.31 in 10.0 mi NNW 9.2 mph - 0.00 in   Overcast
1:53 AM 23.0 °F 13.9 °F 14.0 °F 68% 30.32 in 10.0 mi NW 8.1 mph - N/A   Overcast
2:53 AM 23.0 °F 12.4 °F 14.0 °F 68% 30.32 in 10.0 mi NNW 10.4 mph - N/A   Overcast
3:53 AM 23.0 °F 13.9 °F 14.0 °F 68% 30.33 in 10.0 mi NNW 8.1 mph - N/A   Overcast
4:53 AM 21.9 °F 12.5 °F 14.0 °F 72% 30.33 in 10.0 mi NNW 8.1 mph - N/A   Overcast
5:53 AM 21.9 °F 12.5 °F 12.9 °F 68% 30.34 in 10.0 mi NNW 8.1 mph - N/A   Overcast
6:53 AM 21.9 °F 12.5 °F 12.9 °F 68% 30.36 in 10.0 mi NNW 8.1 mph - N/A   Overcast
7:53 AM 23.0 °F 17.0 °F 14.0 °F 68% 30.39 in 10.0 mi NW 4.6 mph - N/A   Overcast
8:53 AM 23.0 °F 14.7 °F 14.0 °F 68% 30.38 in 10.0 mi North 6.9 mph - N/A   Overcast
9:53 AM 24.1 °F - 14.0 °F 65% 30.40 in 10.0 mi Calm Calm - N/A   Overcast
10:53 AM 25.0 °F 19.3 °F 15.1 °F 66% 30.39 in 10.0 mi NNE 4.6 mph - N/A   Overcast
11:53 AM 26.1 °F 17.6 °F 15.1 °F 63% 30.38 in 10.0 mi East 8.1 mph - N/A   Overcast
12:53 PM 26.1 °F - 15.1 °F 63% 30.39 in 10.0 mi Calm Calm - N/A   Overcast
1:53 PM 27.0 °F 19.5 °F 16.0 °F 63% 30.34 in 10.0 mi East 6.9 mph - N/A   Overcast
2:53 PM 27.0 °F 16.7 °F 17.1 °F 66% 30.31 in 10.0 mi East 11.5 mph - N/A   Overcast
3:53 PM 27.0 °F 19.5 °F 16.0 °F 63% 30.30 in 10.0 mi ENE 6.9 mph - N/A   Overcast
4:53 PM 27.0 °F 18.7 °F 16.0 °F 63% 30.33 in 10.0 mi East 8.1 mph - N/A   Overcast
5:53 PM 25.0 °F 13.6 °F 16.0 °F 69% 30.33 in 10.0 mi East 12.7 mph 19.6 mph N/A   Overcast
6:53 PM 24.1 °F 12.5 °F 15.1 °F 69% 30.32 in 10.0 mi East 12.7 mph 21.9 mph N/A   Overcast
7:34 PM 23.0 °F 10.6 °F 14.0 °F 68% 30.28 in 10.0 mi East 13.8 mph - N/A   Scattered Clouds
7:53 PM 23.0 °F 11.7 °F 14.0 °F 68% 30.33 in 10.0 mi East 11.5 mph - N/A   Partly Cloudy
8:07 PM 21.2 °F 9.5 °F 12.2 °F 68% 30.28 in 10.0 mi East 11.5 mph 20.7 mph N/A   Mostly Cloudy
8:33 PM 21.2 °F 8.9 °F 12.2 °F 68% 30.27 in 10.0 mi East 12.7 mph - N/A   Scattered Clouds
8:53 PM 21.9 °F 9.2 °F 12.9 °F 68% 30.30 in 10.0 mi ESE 13.8 mph - N/A   Partly Cloudy
9:53 PM 21.0 °F 8.1 °F 12.9 °F 71% 30.28 in 10.0 mi East 13.8 mph 24.2 mph N/A   Clear
10:53 PM 21.9 °F 9.2 °F 12.9 °F 68% 30.27 in 10.0 mi East 13.8 mph - N/A   Clear
11:53 PM 21.9 °F 8.7 °F 12.9 °F 68% 30.23 in 10.0 mi East 15.0 mph - N/A   Overcast